Regional Weather Roundup
Issued by NWS

Home | Current Version | Previous Version | Text Only | Print | Product List | Glossary Off
Versions: 1 2 3 4 5 6 7 8 9 10 11 12 13 14 15 16 17 18 19 20 21 22 23 24 25 26 27 28 29 30 31 32 33 34 35 36 37 38 39 40 41 42 43 44 45 46 47 48 49 50

000
ASUS45 KBOU 201607
RWRCO

WEATHER ROUNDUP FOR COLORADO
NATIONAL WEATHER SERVICE DENVER/BOULDER CO
1000 AM MDT MON APR 20 2015

NOTE: "FAIR" INDICATES FEW OR NO CLOUDS BELOW 12000 FEET WITH NO
SIGNIFICANT WEATHER AND/OR OBSTRUCTIONS TO VISIBILITY.

COZ001>005-013-030-031-201700-
...NORTHWEST COLORADO...

CITY           SKY/WX    TMP DP  RH WIND       PRES   REMARKS
CRAIG          PTSUNNY   42  36  79 CALM      30.04F
HAYDEN         PTSUNNY   37  32  81 CALM      30.04S
MEEKER         CLOUDY    46  34  62 CALM      30.03S
MOUNT WERNER   NOT AVBL
STEAMBOAT SPGS PTSUNNY   36  31  85 CALM      30.04S
WALDEN         PTSUNNY   32  28  86 CALM      30.02S
$$

COZ006>008-011-201700-
...WEST CENTRAL VALLEYS...

CITY           SKY/WX    TMP DP  RH WIND       PRES   REMARKS
GRAND JUNCTION SUNNY     51  42  71 SE6       30.00S
MONTROSE       PTSUNNY   48  40  73 CALM      30.04S
EAGLE          MOSUNNY   43  37  81 CALM      30.05F
RIFLE          MOSUNNY   48  38  68 N3        30.03S
DELTA          SUNNY     54  41  63 MISG      30.02S
NUCLA          SUNNY     50  34  53 CALM      30.04S
$$

COZ017>023-064>068-201700-
...SOUTHWEST COLORADO...

CITY           SKY/WX    TMP DP  RH WIND       PRES   REMARKS
DURANGO        SUNNY     51  26  37 NE6       30.01F
CORTEZ         MOSUNNY   56  29  35 NE3       30.00S
PAGOSA SPRINGS SUNNY     48  23  37 CALM      30.04S
TELLURIDE      PTSUNNY   43  28  54 W6        30.09S
WOLF CREEK PAS CLOUDY    28  21  74 S13       30.15S WCI  18
$$

COZ009-010-012-014-032>034-037-058>063-201700-
...CENTRAL COLORADO...

CITY           SKY/WX    TMP DP  RH WIND       PRES   REMARKS
ASPEN          PTSUNNY   42  30  62 N8        30.03S
BUENA VISTA    MOSUNNY   35  29  76 CALM      30.02S
COPPER MTN     CLOUDY    25  19  80 MISG      30.06S
BERTHOUD PASS  CLOUDY    14   9  79 NW29G39   30.03R WCI  -7
COTTONWOOD PAS PTSUNNY   37  23  56 CALM      30.04S
GUNNISON       MOSUNNY   39  32  75 CALM      30.07S
KREMMLING      MOSUNNY   36  30  80 CALM      30.05F
LEADVILLE      MIX PCPN  31  19  61 NW13G21   30.04R WCI  21
SALIDA         MOSUNNY   42  31  65 CALM      30.09F
SUNLIGHT       CLOUDY   N/A N/A N/A CALM      30.13S HAZE
WILKERSON PASS PTSUNNY   27  23  86 NW8       30.06R WCI  18
$$

COZ069>075-201700-
...SAN LUIS VALLEY/SANGRE DE CRISTO MOUNTAINS...

CITY           SKY/WX    TMP DP  RH WIND       PRES   REMARKS
ALAMOSA        CLOUDY    45  28  51 NW14      30.04R
LA VETA PASS   CLOUDY    34  28  80 SW6       30.06S WCI  29
SAGUACHE       CLOUDY    43  30  61 NW12      30.03S
$$

COZ035-036-038>040-201700-
...NORTHERN COLORADO FRONT RANGE...

CITY           SKY/WX    TMP DP  RH WIND       PRES   REMARKS
DENVER INTL AP MOSUNNY   41  27  57 VRB5      30.01F
DMNS CITY PARK   N/A     44  27  51 SW7       30.00F
AURORA         MOSUNNY   41  27  57 SE6       30.01F
FRONT RANGE AP MOSUNNY   41  30  65 S6        30.02F
ERIE MUNI ARPT SUNNY     43  30  60 CALM      30.01F
BOULDER MUN AP SUNNY     41  32  70 CALM      30.00F
CENTENNIAL     MOSUNNY   41  28  60 SW7       30.00F
BROOMFIELD     MOSUNNY   41  30  65 CALM      30.01F
FORT COLLINS   CLOUDY    39  32  75 CALM      30.04S
LONGMONT       SUNNY     44  31  60 CALM      30.03S
$$

COZ041-046-047-076>085-087-088-201700-
...PIKES PEAK/PALMER DIVIDE AND SOUTHERN FOOTHILLS...

CITY           SKY/WX    TMP DP  RH WIND       PRES   REMARKS
COLO. SPRINGS  MOSUNNY   40  27  59 S7        30.02F
A. F. ACADEMY  NOT AVBL
ELLICOTT       MOSUNNY  N/A N/A N/A SW6       30.02S
FALCON         PTSUNNY   38  28  68 S6        30.03S
FORT CARSON    NOT AVBL
LIMON          SUNNY     41  25  53 NW8       30.03F
MONUMENT HILL  SUNNY     37  30  75 SW5       30.00S
TRINIDAD       MOSUNNY   49  32  52 VRB7      30.00S
$$

COZ042>045-048>051-090-091-201700-
...NORTHEAST COLORADO...

CITY           SKY/WX    TMP DP  RH WIND       PRES   REMARKS
GREELEY ARPT   SUNNY     39  28  65 W6        30.04F
AKRON          MOSUNNY   44  26  49 W12       30.01F
BURLINGTON     MOSUNNY   47  25  42 NW13      30.03S
WRAY           SUNNY     50  22  34 NW14G20   30.01F
STERLING       MOSUNNY   46  27  46 W12G18    30.00F
HOLYOKE        SUNNY     50  25  37 NW13      30.01S
FORT MORGAN    SUNNY     44  31  62 W9        30.03F
$$

COZ086-089-092>099-201700-
...SOUTHEAST COLORADO...

CITY           SKY/WX    TMP DP  RH WIND       PRES   REMARKS
PUEBLO         SUNNY     46  28  49 E3        30.03F
LA JUNTA       PTSUNNY   49  30  48 SE9       30.03F
LAMAR          CLOUDY    46  29  51 E5        30.04R
SPRINGFIELD      N/A     46  25  43 SE5       30.04F
$$



USA.gov is the U.S. government's official web portal to all federal, state and local government web resources and services.